Location: *
(34.6780°N, 135.8310°E)
Time: 04:27:21
(UTC+00:00)

Milstar 3 - Pass Details

Date: 18 October 2019
Orbit: 1107 x 5138 km, 28.1° (Epoch: 18 November)

Event Time Altitude Azimuth Distance (km) Brightness Sun altitude
Exits shadow 19:33:44 15° 221° (SW) 2,784 4.5 -19.5°
Maximum altitude 19:38:52 34° 163° (SSE) 1,719 3.9 -18.4°
Drops below altitude 10° 19:45:01 10° 99° (E) 3,100 6.4 -17.2°
Sets 19:48:17 0° 90° (E) 4,281 7.7 -16.5°
